When you browse on this site, cookies collect data to enhance your experience and personalize the content and advertising you see.
Visit our Privacy Policy to learn more. By continuing to use the site, you agree to this use of cookies and data.
  • în România
  • Lista ţărilor
  • Pe 7 zile
  • Temperatura apei
  • Meteo pe hartă
  • Widget-uri
  • user-avatar
    Intrare

    Meteo pe oră la Cobán

    Astăzi, 6 Decembrie, Vineri

    Timp Temperatura Precipitaţii Vânt Presiune Umiditate
    00:00 +15°C° 0 mm 0 m/s 655 mmHg 97%
    01:00 +14°C° 0 mm 0 m/s 655 mmHg 97%
    02:00 +14°C° 0 mm 0 m/s 655 mmHg 97%
    03:00 +14°C° 0 mm 0 m/s 655 mmHg 96%
    04:00 +14°C° 0 mm 0 m/s 655 mmHg 96%
    05:00 +14°C° 0 mm 0 m/s 655 mmHg 96%
    06:00 +14°C° 0 mm 0 m/s 655 mmHg 96%
    07:00 +16°C° 0 mm 0 m/s 656 mmHg 90%
    08:00 +17°C° 0 mm 0 m/s 657 mmHg 83%
    09:00 +19°C° 0 mm 0 m/s 658 mmHg 77%
    10:00 +22°C° 0 mm 1 m/s 657 mmHg 71%
    11:00 +23°C° 0 mm 1 m/s 657 mmHg 65%
    12:00 +25°C° 0 mm 1 m/s 657 mmHg 59%
    13:00 +24°C° 0.1 mm 1 m/s 657 mmHg 63%
    14:00 +24°C° 0.1 mm 1 m/s 656 mmHg 66%
    15:00 +23°C° 0.1 mm 1 m/s 656 mmHg 70%
    16:00 +22°C° 0.2 mm 1 m/s 655 mmHg 79%
    17:00 +20°C° 0.2 mm 1 m/s 655 mmHg 88%
    18:00 +19°C° 0.2 mm 1 m/s 655 mmHg 97%
    19:00 +18°C° 0.1 mm 1 m/s 656 mmHg 97%
    20:00 +16°C° 0.1 mm 0 m/s 656 mmHg 97%
    21:00 +15°C° 0.1 mm 0 m/s 657 mmHg 98%
    22:00 +15°C° 0 mm 0 m/s 657 mmHg 97%
    23:00 +15°C° 0 mm 0 m/s 656 mmHg 97%

    Mâine, 7 Decembrie, Sâmbătă

    Timp Temperatura Precipitaţii Vânt Presiune Umiditate
    00:00 +14°C° 0 mm 0 m/s 656 mmHg 97%
    01:00 +14°C° 0 mm 0 m/s 656 mmHg 97%
    02:00 +14°C° 0 mm 0 m/s 656 mmHg 97%
    03:00 +14°C° 0 mm 0 m/s 655 mmHg 96%
    04:00 +14°C° 0.1 mm 0 m/s 656 mmHg 96%
    05:00 +14°C° 0.1 mm 0 m/s 656 mmHg 96%
    06:00 +14°C° 0.1 mm 0 m/s 656 mmHg 96%
    07:00 +15°C° 0.1 mm 0 m/s 657 mmHg 92%
    08:00 +17°C° 0.1 mm 0 m/s 657 mmHg 88%
    09:00 +20°C° 0.1 mm 1 m/s 658 mmHg 84%
    10:00 +21°C° 0.1 mm 1 m/s 658 mmHg 78%
    11:00 +22°C° 0.1 mm 1 m/s 658 mmHg 72%
    12:00 +23°C° 0.1 mm 1 m/s 657 mmHg 66%
    13:00 +23°C° 0.3 mm 1 m/s 657 mmHg 71%
    14:00 +22°C° 0.3 mm 1 m/s 656 mmHg 76%
    15:00 +22°C° 0.3 mm 1 m/s 655 mmHg 81%
    16:00 +20°C° 0.3 mm 1 m/s 655 mmHg 86%
    17:00 +19°C° 0.3 mm 1 m/s 655 mmHg 91%
    18:00 +16°C° 0.3 mm 0 m/s 655 mmHg 97%
    19:00 +15°C° 0.1 mm 0 m/s 656 mmHg 97%
    20:00 +15°C° 0.1 mm 0 m/s 656 mmHg 97%
    21:00 +14°C° 0.1 mm 0 m/s 656 mmHg 98%
    22:00 +14°C° 0 mm 0 m/s 656 mmHg 97%
    23:00 +14°C° 0 mm 0 m/s 656 mmHg 97%

    Poimâine, 8 Decembrie, Duminică

    Timp Temperatura Precipitaţii Vânt Presiune Umiditate
    00:00 +14°C° 0 mm 0 m/s 656 mmHg 97%
    01:00 +14°C° 0 mm 0 m/s 655 mmHg 97%
    02:00 +13°C° 0 mm 0 m/s 655 mmHg 97%
    03:00 +13°C° 0 mm 0 m/s 655 mmHg 98%
    04:00 +14°C° 0 mm 0 m/s 655 mmHg 97%
    05:00 +14°C° 0 mm 0 m/s 655 mmHg 97%
    06:00 +14°C° 0 mm 0 m/s 655 mmHg 97%
    07:00 +15°C° 0 mm 0 m/s 656 mmHg 92%
    08:00 +17°C° 0 mm 0 m/s 657 mmHg 88%
    09:00 +18°C° 0 mm 0 m/s 657 mmHg 83%
    10:00 +21°C° 0 mm 1 m/s 657 mmHg 75%
    11:00 +22°C° 0 mm 1 m/s 657 mmHg 68%
    12:00 +23°C° 0 mm 1 m/s 656 mmHg 61%
    13:00 +23°C° 0 mm 1 m/s 656 mmHg 62%
    14:00 +23°C° 0 mm 1 m/s 655 mmHg 63%
    15:00 +23°C° 0 mm 1 m/s 655 mmHg 64%
    16:00 +21°C° 0 mm 1 m/s 654 mmHg 74%
    17:00 +20°C° 0 mm 1 m/s 654 mmHg 84%
    18:00 +16°C° 0 mm 0 m/s 654 mmHg 94%
    19:00 +15°C° 0 mm 0 m/s 654 mmHg 95%
    20:00 +15°C° 0 mm 0 m/s 654 mmHg 95%
    21:00 +14°C° 0 mm 0 m/s 655 mmHg 96%
    22:00 +14°C° 0 mm 0 m/s 654 mmHg 96%
    23:00 +14°C° 0 mm 0 m/s 654 mmHg 96%

    9 Decembrie, Luni

    Timp Temperatura Precipitaţii Vânt Presiune Umiditate
    00:00 +14°C° 0 mm 0 m/s 654 mmHg 95%
    01:00 +14°C° 0 mm 0 m/s 654 mmHg 96%
    02:00 +14°C° 0 mm 0 m/s 653 mmHg 96%
    03:00 +13°C° 0 mm 0 m/s 653 mmHg 96%
    04:00 +13°C° 0 mm 0 m/s 653 mmHg 96%
    05:00 +13°C° 0 mm 0 m/s 653 mmHg 95%
    06:00 +13°C° 0 mm 0 m/s 653 mmHg 95%
    07:00 +15°C° 0 mm 0 m/s 654 mmHg 87%
    08:00 +18°C° 0 mm 0 m/s 655 mmHg 79%
    09:00 +20°C° 0 mm 0 m/s 656 mmHg 71%
    10:00 +21°C° 0 mm 0 m/s 656 mmHg 66%
    11:00 +25°C° 0 mm 1 m/s 656 mmHg 60%
    12:00 +26°C° 0 mm 1 m/s 656 mmHg 54%
    13:00 +26°C° 0 mm 1 m/s 655 mmHg 58%
    14:00 +25°C° 0 mm 1 m/s 654 mmHg 62%
    15:00 +25°C° 0 mm 1 m/s 653 mmHg 67%
    16:00 +23°C° 0.1 mm 1 m/s 653 mmHg 76%
    17:00 +21°C° 0.1 mm 1 m/s 653 mmHg 86%
    18:00 +17°C° 0.1 mm 0 m/s 653 mmHg 96%
    19:00 +17°C° 0 mm 0 m/s 653 mmHg 96%
    20:00 +17°C° 0 mm 0 m/s 654 mmHg 96%
    21:00 +17°C° 0 mm 0 m/s 654 mmHg 96%
    22:00 +17°C° 0 mm 0 m/s 654 mmHg 97%
    23:00 +17°C° 0 mm 0 m/s 654 mmHg 97%

    10 Decembrie, Marţi

    Timp Temperatura Precipitaţii Vânt Presiune Umiditate
    00:00 +17°C° 0 mm 0 m/s 654 mmHg 97%
    01:00 +16°C° 0 mm 0 m/s 654 mmHg 97%
    02:00 +16°C° 0 mm 0 m/s 653 mmHg 97%
    03:00 +15°C° 0 mm 0 m/s 653 mmHg 98%
    04:00 +16°C° 0 mm 1 m/s 653 mmHg 97%
    05:00 +16°C° 0 mm 1 m/s 653 mmHg 97%
    06:00 +16°C° 0 mm 1 m/s 653 mmHg 97%
    07:00 +17°C° 0 mm 0 m/s 654 mmHg 88%
    08:00 +19°C° 0 mm 0 m/s 655 mmHg 79%
    09:00 +22°C° 0 mm 0 m/s 656 mmHg 70%
    10:00 +23°C° 0 mm 0 m/s 656 mmHg 65%
    11:00 +26°C° 0 mm 1 m/s 656 mmHg 60%
    12:00 +28°C° 0 mm 1 m/s 656 mmHg 55%
    13:00 +27°C° 0.5 mm 1 m/s 655 mmHg 62%
    14:00 +26°C° 0.5 mm 1 m/s 655 mmHg 69%
    15:00 +25°C° 0.5 mm 1 m/s 654 mmHg 76%
    16:00 +23°C° 0.6 mm 1 m/s 654 mmHg 83%
    17:00 +21°C° 0.6 mm 1 m/s 654 mmHg 89%
    18:00 +17°C° 0.6 mm 0 m/s 654 mmHg 96%
    19:00 +17°C° 0.4 mm 0 m/s 654 mmHg 97%
    20:00 +16°C° 0.4 mm 0 m/s 655 mmHg 97%
    21:00 +16°C° 0.4 mm 0 m/s 655 mmHg 97%
    22:00 +16°C° 0.2 mm 0 m/s 655 mmHg 97%
    23:00 +16°C° 0.2 mm 1 m/s 655 mmHg 97%

    11 Decembrie, Miercuri

    Timp Temperatura Precipitaţii Vânt Presiune Umiditate
    00:00 +16°C° 0.2 mm 1 m/s 655 mmHg 97%
    01:00 +16°C° 0.1 mm 1 m/s 655 mmHg 98%
    02:00 +16°C° 0.1 mm 1 m/s 654 mmHg 98%
    03:00 +15°C° 0.1 mm 1 m/s 654 mmHg 98%
    04:00 +15°C° 0.1 mm 1 m/s 654 mmHg 98%
    05:00 +15°C° 0.1 mm 1 m/s 655 mmHg 99%
    06:00 +15°C° 0.1 mm 1 m/s 655 mmHg 99%
    07:00 +16°C° 0.2 mm 1 m/s 656 mmHg 97%
    08:00 +18°C° 0.2 mm 1 m/s 656 mmHg 96%
    09:00 +19°C° 0.2 mm 1 m/s 657 mmHg 95%
    10:00 +20°C° 0.5 mm 1 m/s 657 mmHg 92%
    11:00 +20°C° 0.5 mm 1 m/s 656 mmHg 89%
    12:00 +21°C° 0.5 mm 1 m/s 656 mmHg 86%
    13:00 +21°C° 0.6 mm 1 m/s 656 mmHg 87%
    14:00 +21°C° 0.6 mm 1 m/s 655 mmHg 87%
    15:00 +21°C° 0.6 mm 1 m/s 655 mmHg 87%
    16:00 +20°C° 0.6 mm 1 m/s 655 mmHg 91%
    17:00 +19°C° 0.6 mm 1 m/s 655 mmHg 94%
    18:00 +18°C° 0.6 mm 1 m/s 655 mmHg 97%
    19:00 +15°C° 0.1 mm 0 m/s 655 mmHg 97%
    20:00 +15°C° 0.1 mm 0 m/s 656 mmHg 98%
    21:00 +14°C° 0.1 mm 0 m/s 656 mmHg 98%
    22:00 +14°C° 0 mm 0 m/s 656 mmHg 98%
    23:00 +14°C° 0 mm 0 m/s 656 mmHg 98%
    Arată mai mult